Simultaneous Nadir Overpasses (SNOs) Predictions

Prediction of SNOs between LANDSAT-8 and METOP-B Satellite Orbit:

Table of predicted SNOs for the next 14.0 days since TLE Epoch: 8/26/2022
Index Date (LANDSAT-8) Time (LANDSAT-8) Lat,Lon (LANDSAT-8) SZA (LANDSAT-8 ) Date (METOP-B) Time (METOP-B) Lat,Lon (METOP-B) SZA (METOP-B ) Distance(km) Time Diff (sec)
1 08/27/2022 14:01:16 81.17, 10.48 73.37 08/27/2022 14:00:38 81.17, 10.49 73.36 0.38 38
2 08/27/2022 14:50:42 -81.19, 178.39 106.58 08/27/2022 14:51:17 -81.19, 178.44 106.56 0.88 35
3 08/30/2022 09:35:31 81.17, 76.91 74.38 08/30/2022 09:34:58 81.18, 77.10 74.39 3.29 33
4 08/30/2022 10:24:57 -81.19,-115.14 105.57 08/30/2022 10:25:38 -81.18,-115.32 105.57 3.05 41
5 09/02/2022 05:09:46 81.16, 143.29 75.41 09/02/2022 05:09:19 81.17, 143.29 75.40 0.61 27
6 09/02/2022 05:59:12 -81.18, -48.73 104.53 09/02/2022 05:59:58 -81.19, -48.73 104.51 0.56 46
7 09/05/2022 00:43:59 81.18,-150.01 76.50 09/05/2022 00:43:38 81.17,-150.17 76.47 2.76 21
8 09/05/2022 01:33:25 -81.20, 17.99 103.44 09/05/2022 01:34:17 -81.19, 17.84 103.44 2.71 52
9 09/07/2022 20:18:14 81.17, -83.73 77.54 09/07/2022 20:17:58 81.18, -83.65 77.55 1.65 16



Historial Predications of SNOs between LANDSAT-8 and METOP-B
